Location: Unspecified
(17.6330°N, 0.0000°E)
Time: 18:21:56
(UTC+00:00)

A-11 Canister half - Pass Details

Date: 25 June 2019
Orbit: 1514 x 1686 km, 47.2° (Epoch: 22 August)

Event Time Altitude Azimuth Distance (km) Brightness Sun altitude
Rises 08:06:22 0° 228° (SW) 4,930 11.2 34.7°
Reaches altitude 10° 08:09:33 10° 230° (SW) 3,943 10.8 35.5°
Maximum altitude 08:19:41 72° 314° (NW) 1,739 9.8 37.8°
Drops below altitude 10° 08:29:39 10° 38° (NE) 3,876 11.9 40.1°
Sets 08:32:46 0° 41° (NE) 4,842 12.2 40.8°
